Home > Weather > Thunder Bay > Past weeks

Flag for Canada Past Weather in Thunder Bay, Ontario, Canada — Yesterday and Last 2 Weeks

Now
48 °F

Passing clouds.


Feels Like: 45 °F
Forecast: 49 / 74 °F
Wind: 7 mph from Southwest

Location: Thunder Bay

Current Time: Jul 1, 2016 at 7:51:49 AM

Latest Report: Jul 1, 2016 at 7:00 AM


Visibility: 20 mi

Pressure: 30.10 "Hg

Humidity: 94%

Dew Point: 46 °F

Location of Thunder BayLocation

Past Weather in Thunder Bay — Graph

°F

Thunder Bay Temperature Yesterday

Maximum temperature yesterday: 64 °F (at 4:00 PM)
Minimum temperature yesterday: 54 °F (at 2:00 AM)
Average temperature yesterday: 59 °F

High & Low Weather Summary for the Past Weeks

 TemperatureHumidityPressure
High86 °F (Jun 19, 6:00 PM)100% (Jun 16, 6:00 AM)30.25 "Hg (Jun 16, 6:00 AM)
Low41 °F (Jun 22, 5:00 AM)28% (Jun 16, 7:00 PM)29.64 "Hg (Jun 26, 7:00 PM)
Average63 °F73%29.96 "Hg
* Reported Jun 16 6:00 AM — Jul 1 6:00 AM, Thunder Bay, Weather by CustomWeather, © 2016

Note: Actual official high and low records may vary slightly from our data, if they occured in-between our weather recording intervals... More about our weather records

Advertising

Thunder Bay Weather History for the Previous 24 Hours

Scroll right to see more
 ConditionsComfort  
Time TempWeatherWind HumidityBarometerVisibility
6:00 AM
Fri, Jul 1
46 °FPassing clouds.6 mph93%30.10 "Hg20 mi
5:00 AM46 °FPassing clouds.6 mph100%30.09 "Hg20 mi
4:00 AM45 °FClear.6 mph100%30.08 "Hg15 mi
3:00 AM46 °FClear.6 mph93%30.08 "Hg15 mi
2:00 AM46 °FClear.5 mph93%30.07 "Hg15 mi
1:00 AM48 °FClear.5 mph94%30.08 "Hg15 mi
12:00 AM48 °FClear.7 mph94%30.08 "Hg15 mi
11:00 PM
Thu, Jun 30
54 °FPassing clouds.2 mph72%30.09 "Hg15 mi
10:00 PM57 °FPartly sunny.9 mph67%30.07 "Hg20 mi
9:00 PM57 °FPartly sunny.10 mph67%30.06 "Hg20 mi
8:00 PM63 °FPartly sunny.8 mph64%30.02 "Hg20 mi
7:00 PM64 °FBroken clouds.6 mph64%29.99 "Hg20 mi
6:00 PM64 °FPartly sunny.9 mph64%29.98 "Hg20 mi
5:00 PM64 °FBroken clouds.6 mph68%29.98 "Hg20 mi
4:00 PM64 °FPartly sunny.9 mph68%29.97 "Hg20 mi
3:00 PM63 °FPartly sunny.10 mph77%29.96 "Hg15 mi
2:00 PM61 °FPartly sunny.8 mph83%29.96 "Hg15 mi
1:00 PM59 °FSprinkles. Partly sunny.2 mph94%29.96 "Hg15 mi
12:00 PM59 °FThunderstorms. Fog.6 mph94%29.96 "Hg1 mi
11:52 AM59 °FStrong thunderstorms. Fog.7 mph88%29.95 "Hg1 mi
11:00 AM61 °FMostly cloudy.7 mph94%29.92 "Hg20 mi
10:00 AM61 °FOvercast.No wind100%29.92 "Hg20 mi
9:00 AM61 °FOvercast.3 mph94%29.92 "Hg20 mi
8:00 AM59 °FOvercast.3 mph100%29.92 "Hg20 mi
7:00 AM57 °FMostly cloudy.3 mph100%29.90 "Hg20 mi
Weather by CustomWeather, © 2016

See weather overviewHow to use our weather pages